Location: Newark
(57.7279°N, 5.6916°W)
Time: 23:10:19
(UTC+00:00)

N. Korean satellite - Pass Details

Date: 09 December 2019
Orbit: 454 x 508 km, 97.2° (Epoch: 20 January)

Event Time Altitude Azimuth Distance (km) Brightness Sun altitude
Rises 05:23:03 0° 24° (NNE) 2,576 10.5 -26.0°
Reaches altitude 10° 05:25:38 10° 43° (NE) 1,677 9.8 -25.6°
Maximum altitude 05:28:14 19° 89° (E) 1,222 9.4 -25.3°
Drops below altitude 10° 05:30:47 10° 136° (SE) 1,644 9.8 -24.9°
Sets 05:33:17 0° 155° (SSE) 2,505 10.6 -24.6°
